Location: Hawks Ness
(60.2333°N, 1.1667°W)
Time: 13:52:28
(UTC+00:00)

USA 116 - Pass Details

Date: 22 October 2019
Orbit: 405 x 834 km, 97.9° (Epoch: 18 November)

Event Time Altitude Azimuth Distance (km) Brightness Sun altitude
Rises 05:04:36 0° 160° (SSE) 2,539 7.3 -15.0°
Reaches altitude 10° 05:06:44 10° 160° (SSE) 1,612 6.3 -14.8°
Maximum altitude 05:10:09 87° 71° (ENE) 444 3.2 -14.3°
Drops below altitude 10° 05:13:20 10° 343° (NNW) 1,510 5.8 -13.9°
Sets 05:15:17 0° 344° (NNW) 2,360 6.8 -13.7°
